sat.trackr.live / text

‹ back to catalog

STARLINK-34204

NORAD 66213 · 2025-244H

PAYLOAD ACTIVE UNKNOWN

§ Identity

Operator
Country
US
Launch date
2025-10-28
Launch site
AFWTR
Launch vehicle
Mass (kg)
RCS (m²)

Purposes: comms

External: N2YO · Heavens-Above · Gunter

§ Orbital elements

Epoch: 2026-09-20T20:27:47.493792Z

Period
93.85 min
Inclination
53.1591°
Eccentricity
0.0000948
Mean motion
15.34409533 rev/d
Perigee alt
462.0 km
Apogee alt
463.3 km
Semi-major
6,840.8 km
B*
3.8533e-4
RAAN
40.2960°
Arg perigee
84.6919°
Mean anomaly
275.4192°
Rev number
5,158

§ Raw data

STARLINK-342041 66213U 25244H   26263.85263303  .00012669  00000+0  38533-3 0  99922 66213  53.1591  40.2960 0000948  84.6919 275.4192 15.34409533 51589

JSON: /api/v1/satellites/66213 · /tle

For live sub-satellite position, see the globe view (requires WebGL).

§ Visibility from observer

Set your observer location to see the next 7 days of passes ≥ 10°. The values pass through the URL so the page stays shareable.

No JS? Fill the form by hand. The geolocation button needs JavaScript.